This is the latest recevied weather packets stored in our database for station/object KB2EAR-13. If no packets are shown the sender has not sent any weather packets the latest 10 day(s).
| Time | Temp. | Humidity | Pressure | Rain* | Wind** | Luminosity | Snow |
|---|---|---|---|---|---|---|---|
| 1777514418 | 10° C | 91% | 1011.6 hPa | 1.52 mm | - | - | - |
| 1777514118 | 10° C | 91% | 1011.5 hPa | 1.02 mm | - | - | - |
| 1777513817 | 10° C | 90% | 1011.4 hPa | 0.76 mm | - | - | - |
| 1777513518 | 10° C | 90% | 1011.5 hPa | 0.76 mm | - | - | - |
| 1777513218 | 10° C | 90% | 1011.5 hPa | 0.51 mm | - | - | - |
| 1777512918 | 10° C | 90% | 1011.6 hPa | 0.25 mm | - | - | - |
| 1777512618 | 10° C | 90% | 1011.6 hPa | 0.25 mm | - | - | - |
| 1777512018 | 10° C | 89% | 1011.5 hPa | 0.51 mm | - | - | - |
| 1777511717 | 10° C | 89% | 1011.4 hPa | 0.51 mm | - | - | - |
| 1777511418 | 10.56° C | 88% | 1011.4 hPa | 0.25 mm | - | - | - |
| 1777511117 | 10.56° C | 88% | 1011.5 hPa | 0.25 mm | - | - | - |
| 1777510818 | 10.56° C | 88% | 1011.6 hPa | 0.25 mm | - | - | - |
| 1777510517 | 10.56° C | 87% | 1011.7 hPa | 0.25 mm | - | - | - |
| 1777510270 | 10.56° C | 87% | 1011.6 hPa | 0.51 mm | - | - | - |
| 1777509918 | 10.56° C | 86% | 1011.7 hPa | 0.76 mm | - | - | - |
| 1777509618 | 10.56° C | 86% | 1011.7 hPa | 0.76 mm | - | - | - |
| 1777509318 | 10.56° C | 85% | 1011.5 hPa | 0.76 mm | - | - | - |
| 1777509238 | 10.56° C | 85% | 1011.3 hPa | 0.76 mm | - | - | - |
| 1777509018 | 10.56° C | 85% | 1011.3 hPa | 0.76 mm | - | - | - |
| 1777508766 | 10.56° C | 84% | 1011.2 hPa | 0.76 mm | - | - | - |
| 1777508568 | 10.56° C | 83% | 1011.1 hPa | 0.51 mm | - | - | - |
| 1777508118 | 11.11° C | 83% | 1011.1 hPa | 0.51 mm | - | - | - |
| 1777508029 | 11.11° C | 82% | 1010.8 hPa | 0.51 mm | - | - | - |
| 1777507518 | 11.11° C | 81% | 1010.7 hPa | 0.51 mm | - | - | - |
* Rain latest hour (hover to see other rain measurements)
** Current wind speed in m/s (hover to see current wind gust speed)